#timestamp,LO_Frequency,Hit,StdDev 
1506783615.9,286046999.8,N
1506783635.7,286046999.8,N
1506783655.6,286047002.4,N
1506783675.4,286047000.5,N
1506783695.2,286047000.7,N
1506783715.1,286046999.9,N
1506783716.0,286046999.9,N
1506783735.8,286047000.1,N
1506783755.7,286046998.6,N
1506783775.5,286047000.7,N
1506783795.3,286046998.6,N
1506783815.2,286047001.2,N
1506783835.0,286047000.6,N
1506783835.9,286047000.6,N
1506783855.8,286047000.4,N
1506783875.6,286046999.9,N
1506783895.4,286047002.8,N
1506783915.3,286047001.6,N
1506783935.1,286047001.3,N
1506783955.8,286047002.3,N
1506783975.7,286047002.6,N
1506783995.5,286047001.5,N
1506784015.4,286047002.5,N
1506784035.2,286047000.3,N
1506784055.0,286047000.5,N
1506784055.9,286047000.5,N
1506784075.8,286047000.0,N
1506784095.6,286047000.3,N
1506784115.4,286047000.5,N
1506784135.3,286047000.2,N
1506784155.1,286047010.5,Y
1506784175.9,286047015.3,P
1506784195.7,286047016.0,N
1506784215.5,286047015.7,N
1506784235.4,286047016.3,N
1506784255.2,286047014.3,N
1506784275.1,286047011.5,N
1506784276.0,286047011.5,N
1506784295.8,286047008.8,N
1506784315.6,286047009.2,N
1506784335.5,286047006.7,N
1506784355.3,286047004.0,N
1506784375.1,286047002.3,N
1506784395.9,286047000.0,N
1506784415.7,286047000.0,N
1506784435.6,286047000.5,N
1506784455.4,286047000.5,N
1506784475.2,286047001.1,N
1506784495.1,286046999.9,N
1506784496.0,286046999.9,N
1506784515.8,286047000.7,N
1506784535.7,286047001.2,N
1506784555.5,286047000.5,N
1506784575.3,286047000.4,N
1506784595.2,286047000.4,N
1506784615.0,286047000.2,N
1506784615.9,286047000.2,N
1506784635.7,286047000.6,N
1506784655.6,286047000.9,N
1506784675.4,286047000.5,N
1506784695.3,286047001.1,N
1506784715.1,286046999.9,N
1506784716.0,286046999.9,N
1506784735.8,286047000.9,N
1506784755.7,286047001.2,N
1506784775.5,286047001.0,N
1506784795.3,286047001.1,N
1506784815.2,286046998.3,N
1506784835.0,286047000.5,N
1506784835.9,286047000.5,N
1506784855.8,286047001.0,N
1506784875.6,286047000.5,N
1506784895.4,286047000.8,N
1506784915.3,286046998.2,Y
1506784935.1,286046998.4,P
1506784955.9,286047001.2,N
1506784975.7,286046999.2,N
1506784995.5,286046998.5,N
1506785015.4,286047001.1,N
1506785035.2,286046999.0,N
1506785055.0,286046999.1,N
1506785056.0,286046999.1,N
1506785075.8,286046998.3,N
1506785095.6,286046998.3,N
1506785115.5,286046996.6,Y
1506785135.3,286046998.5,P
1506785155.1,286046998.9,N
1506785175.9,286046999.4,N
1506785195.7,286046999.0,N
1506785215.6,286046999.3,N
1506785235.4,286047001.1,Y
1506785255.2,286046998.1,P
1506785275.1,286047002.3,P
1506785276.0,286047002.3,N
1506785295.8,286047000.0,N
1506785315.7,286047002.2,N
1506785335.5,286047000.0,N
1506785355.3,286047002.2,N
1506785375.2,286047002.5,N
1506785395.0,286047002.6,N
1506785395.9,286047002.6,N
1506785415.8,286047002.7,N
1506785435.6,286047000.4,N
1506785455.4,286046999.7,N
1506785475.3,286047002.8,N
1506785495.1,286047002.1,N
1506785515.8,286047002.7,N
1506785535.7,286046998.4,N
1506785555.5,286047002.3,N
1506785575.4,286047000.4,N
1506785595.2,286047000.1,N
1506785615.0,286046999.7,N
1506785615.9,286046999.7,N
1506785635.8,286047002.6,N
1506785655.6,286047002.3,N
1506785675.5,286047000.1,N
1506785695.3,286047001.6,N
1506785715.1,286047002.0,N
1506785735.9,286047001.8,N
1506785755.7,286047004.0,N
1506785775.5,286047006.9,Y
1506785795.4,286047007.9,P
1506785815.2,286047011.7,P
1506785835.1,286047012.6,N
1506785836.0,286047012.6,N
1506785855.8,286047013.9,Y
1506785875.6,286047003.3,P
1506785895.5,286047003.7,N
1506785915.3,286047004.2,N
1506785935.2,286047001.3,N
1506785955.0,286047002.1,N
1506785955.9,286047002.1,N
1506785975.7,286047001.5,N
1506785995.6,286047002.7,N
1506786015.4,286047000.2,N
1506786035.3,286047000.3,N
1506786055.1,286047001.1,N
1506786075.8,286047001.2,N
1506786095.7,286046998.4,N
1506786115.5,286046998.5,N
1506786135.4,286046998.1,N
1506786155.2,286046999.4,N
1506786175.0,286046999.0,N
1506786175.9,286046999.0,N
1506786195.8,286046998.4,N
1506786215.6,286046997.0,N
1506786235.4,286046999.6,N
1506786255.3,286046999.6,N
1506786275.1,286046999.1,N
1506786295.9,286046997.1,N
1506786315.7,286046996.6,N
1506786335.5,286046997.7,N
1506786355.4,286046995.3,N
1506786375.2,286046995.3,N
1506786395.0,286046997.6,N
1506786395.9,286046997.6,N
1506786415.8,286046996.4,N
1506786435.6,286046994.0,N
1506786455.5,286046993.4,N
1506786475.3,286046995.9,N
1506786495.1,286046996.3,N
1506786515.9,286046992.2,Y
1506786535.7,286046994.5,P
1506786555.6,286046994.7,N
1506786575.4,286046992.3,P
1506786595.2,286046992.2,Y
1506786615.1,286046996.7,P
1506786616.0,286046996.7,P
1506786635.8,286046997.0,P
1506786655.7,286046997.3,Y
1506786675.5,286047002.7,P
1506786695.3,286047000.4,N
1506786715.2,286047000.2,N
1506786735.0,286047000.9,N
1506786735.9,286047000.9,N
1506786755.8,286047000.8,N
1506786775.6,286047001.2,N
1506786795.4,286046998.1,N
1506786815.3,286047000.4,N
1506786835.1,286047000.2,N
1506786855.9,286046999.8,N
1506786875.7,286046998.1,N
1506786895.5,286046998.3,N
1506786915.4,286046998.9,N
1506786935.2,286046998.8,N
1506786955.1,286046999.6,N
1506786956.0,286046999.6,N
1506786975.8,286046999.6,N
1506786995.6,286046999.0,N
1506787015.5,286046997.0,N
1506787035.3,286046999.1,N
1506787055.1,286046997.4,N
1506787075.9,286046995.3,Y
1506787095.7,286046997.3,P
1506787115.6,286046995.0,P
1506787135.4,286046997.7,N
1506787155.2,286046995.2,Y
1506787175.1,286046999.5,P
1506787176.0,286046999.5,N
1506787195.8,286046996.8,P
